"Pseudo-MPEC" for P10OPmh

Created 2019 Jun 19 17:07:33 UT using Find_Orb

Click here for an explanation of pseudo-MPECs

 
 Astrometry: 
     P10OPmh  C2019 06 02Y)XLl8Su`eTFXiCF$mU/\`qAstrometry^W-6/fWhI5:'H7hgE4FF51
     P10OPmh  C2019 06 024XF8%GH4)._A?mWNY4)$1y+3jM5bJtGyHdg+LLLl?^tSL7\*565%F51
     P10OPmh  C2019 06 08ciredacted;n%Drykixm-eRZlX1TdiksGic6H'=,$i`oX8@XnTJLF51
     P10OPmh  C2019 06 08Z5C4T2ZT_[xIrFPR=6Vav%?5u9mCmqI',l`XPoemA7mqclickC1aF51
     P10OPmh  C2019 06 08yL8XE'-_NPREZQlP8%Z-CEd]G52vZ^hlhere*oiCPAh*U@Q+XV??F51
     P10OPmh  C2019 06 08yes=@R\S(p7q=Af=0dG,R,aL]G^mf#F+vca=;xJwHane)5(my*S+F51
     P10OPmh |C2019 06 096oXMp@\tfBJ)]AD[ku*-jojYR]26kq`)SVM8Nm4xvrtt-?o7L9ar807
     P10OPmh |C2019 06 09mT^)EV/_9;9C-g6v@2nn`U3Um:o.VA!dZ^cjGH)c=C,KdvG^.o,H807
     P10OPmh  C2019 06 10J@#qZLYjH4/(rrrfor?uU\8RB=qUgNl6,cJXw:Z1#b^v4WqD:cv\F51
     P10OPmh  C2019 06 10'mUy#[g?0YUv%NMs/_wKwM`Tx^HaZ_BN:v+ucJ_vY!L8P199bd65F51
     P10OPmh  C2019 06 10$D3bmOCRqKFmVA0Z'`9\3Qfg%YjpnH:\1-1T9\%_*5[:o!bxh9?UF51
     P10OPmh  C2019 06 10/D5hh+77EexplanationsH-*VF@5`JJA?s]@[5bNTq]S,u7=2\64F51
     P10OPmh KC2019 06 11itDj:YP?]K^VbX7w@?,7#9C]44Gpj5:dZ^X9hQQ95-UGy,g8XuQU291
     P10OPmh KC2019 06 11X@i2A:V.@6lS*Z*5MtB(Au4cn'Ai2QR@4s4kPB1@hd$HI9OC6WeF291

Station data:
(291) LPL/Spacewatch II  (N31.961669 W111.599905)  US/Arizona.  Observers J.
   V. Scotti, R. S. McMillan. 1.8-m f/2.7 reflector + CCD.
(807) Cerro Tololo Observatory, La Serena  (S30.169136 W70.805900)  Chile.
(F51) Pan-STARRS 1, Haleakala  (N20.707235 W156.255910)  US/Hawaii.
   Observers N. Primak, A. Schultz, S. Watters, J. Thiel, T. Goggia. Measurer
   PS1 Science Consortium. 1.8-m Ritchey-Chrétien + CCD.

Orbital elements:  P10OPmh
   Perihelion 2019 Oct 18.328309 +/- 0.314 TT =  7:52:45 (JD 2458774.828309)
Epoch 2019 Jun 11.0 TT = JDT 2458645.5   Earth MOID: 0.1394   AutoNEOCP
M 265.28041313 +/- 0.16             (J2000 ecliptic)
n   0.73239639 +/- 0.000612         Peri.   92.16418 +/- 0.17
a   1.21891077 +/- 0.000679         Node   266.32328 +/- 0.023
e   0.0728619 +/- 0.000201          Incl.    3.43778 +/- 0.014
P   1.35/491.53d           H 23.4   G  0.15   U  7.8  
q 1.13009850 +/- 0.000428    Q 1.30772305 +/- 0.000951
From 14 observations 2019 June 2-11; mean residual 0".14
Residuals in arcseconds: 
190602 F51  .11-  .20-    190608 F51  .05+  .03+    190610 F51  .10-  .02+    
190602 F51  .12+  .23+    190609 807  .05+  .15-    190610 F51  .16-  .16+    
190608 F51  .08+  .10-    190609 807  .12+  .05+    190611 291  .33+  .03-    
190608 F51  .14-  .12-    190610 F51  .10-  .14-    190611 291  .01+  .11-    
190608 F51  .06+  .01-    190610 F51  .21-  .29+    

Ephemerides (geocentric):
Date (UTC) HH   RA              Dec         delta   r     elong  mag " sig PA
---- -- -- --  -------------   -----------  ------ ------ -----  --- ---- ---
2019 06 19 17  15 29 14.840   -20 22 53.65  .23798 1.2228 147.1 22.0 3.22  61
2019 06 19 18  15 29 13.045   -20 22 11.65  .23803 1.2228 147.1 22.0 3.25  61
2019 06 19 19  15 29 11.258   -20 21 29.68  .23807 1.2227 147.0 22.0 3.27  61
2019 06 19 20  15 29 09.479   -20 20 47.75  .23812 1.2227 147.0 22.0 3.29  61
2019 06 19 21  15 29 07.708   -20 20 05.85  .23817 1.2226 146.9 22.0 3.31  61
2019 06 19 22  15 29 05.944   -20 19 23.99  .23822 1.2226 146.9 22.0 3.34  61
2019 06 19 23  15 29 04.188   -20 18 42.17  .23826 1.2225 146.8 22.0 3.36  62
2019 06 20 00  15 29 02.440   -20 18 00.38  .23831 1.2225 146.8 22.0 3.38  62
2019 06 20 01  15 29 00.700   -20 17 18.63  .23836 1.2224 146.7 22.0 3.41  62
2019 06 20 02  15 28 58.968   -20 16 36.91  .23840 1.2224 146.7 22.0 3.43  62
2019 06 20 03  15 28 57.243   -20 15 55.23  .23845 1.2223 146.6 22.0 3.45  62
2019 06 20 04  15 28 55.526   -20 15 13.59  .23850 1.2223 146.6 22.0 3.48  62
2019 06 20 05  15 28 53.817   -20 14 31.98  .23855 1.2222 146.5 22.0 3.50  62
2019 06 20 06  15 28 52.116   -20 13 50.41  .23860 1.2222 146.5 22.0 3.52  62
2019 06 20 07  15 28 50.422   -20 13 08.87  .23864 1.2221 146.4 22.0 3.55  62
2019 06 20 08  15 28 48.737   -20 12 27.38  .23869 1.2221 146.4 22.0 3.57  62
2019 06 20 09  15 28 47.059   -20 11 45.91  .23874 1.2220 146.3 22.0 3.60  62
2019 06 20 10  15 28 45.389   -20 11 04.49  .23879 1.2220 146.3 22.0 3.62  62
2019 06 20 11  15 28 43.726   -20 10 23.10  .23884 1.2220 146.2 22.0 3.64  62
2019 06 20 12  15 28 42.072   -20 09 41.75  .23889 1.2219 146.2 22.0 3.67  62
2019 06 20 13  15 28 40.425   -20 09 00.43  .23893 1.2219 146.1 22.0 3.69  63
2019 06 20 14  15 28 38.787   -20 08 19.16  .23898 1.2218 146.1 22.0 3.72  63
2019 06 20 15  15 28 37.156   -20 07 37.92  .23903 1.2218 146.1 22.0 3.74  63
2019 06 20 16  15 28 35.533   -20 06 56.71  .23908 1.2217 146.0 22.0 3.76  63
2019 06 20 17  15 28 33.917   -20 06 15.55  .23913 1.2217 146.0 22.0 3.79  63
2019 06 20 18  15 28 32.310   -20 05 34.42  .23918 1.2216 145.9 22.0 3.81  63
2019 06 20 19  15 28 30.710   -20 04 53.33  .23923 1.2216 145.9 22.0 3.84  63
2019 06 20 20  15 28 29.118   -20 04 12.28  .23928 1.2215 145.8 22.0 3.86  63
2019 06 20 21  15 28 27.534   -20 03 31.26  .23933 1.2215 145.8 22.0 3.89  63
2019 06 20 22  15 28 25.958   -20 02 50.28  .23938 1.2214 145.7 22.0 3.91  63
2019 06 20 23  15 28 24.390   -20 02 09.34  .23943 1.2214 145.7 22.0 3.94  63
2019 06 21 00  15 28 22.829   -20 01 28.44  .23948 1.2213 145.6 22.0 3.96  63
2019 06 21 01  15 28 21.276   -20 00 47.58  .23953 1.2213 145.6 22.0 3.99  63
2019 06 21 02  15 28 19.732   -20 00 06.75  .23958 1.2212 145.5 22.0 4.01  63
2019 06 21 03  15 28 18.194   -19 59 25.96  .23963 1.2212 145.5 22.0 4.04  63
2019 06 21 04  15 28 16.665   -19 58 45.21  .23968 1.2212 145.4 22.0 4.07  63
2019 06 21 05  15 28 15.144   -19 58 04.50  .23973 1.2211 145.4 22.0 4.09  64
2019 06 21 06  15 28 13.630   -19 57 23.82  .23978 1.2211 145.3 22.0 4.12  64
2019 06 21 07  15 28 12.125   -19 56 43.19  .23983 1.2210 145.3 22.0 4.14  64
2019 06 21 08  15 28 10.627   -19 56 02.59  .23989 1.2210 145.2 22.0 4.17  64
2019 06 21 09  15 28 09.137   -19 55 22.03  .23994 1.2209 145.2 22.0 4.19  64
2019 06 21 10  15 28 07.655   -19 54 41.52  .23999 1.2209 145.1 22.0 4.22  64
2019 06 21 11  15 28 06.181   -19 54 01.03  .24004 1.2208 145.1 22.0 4.25  64
2019 06 21 12  15 28 04.714   -19 53 20.59  .24009 1.2208 145.0 22.0 4.27  64
2019 06 21 13  15 28 03.256   -19 52 40.19  .24014 1.2207 145.0 22.0 4.30  64
2019 06 21 14  15 28 01.805   -19 51 59.82  .24019 1.2207 144.9 22.0 4.33  64
2019 06 21 15  15 28 00.362   -19 51 19.50  .24025 1.2206 144.9 22.0 4.35  64
2019 06 21 16  15 27 58.927   -19 50 39.21  .24030 1.2206 144.8 22.0 4.38  64